User: anonymous   Login
Location: Caltech
(34.1382°N, 118.1253°W)
Time: 15:20:27
(UTC-07:00)
Language:

Courier 1B - Orbit

View from above orbital plane
View from above orbital plane
View from above satellite
View from above satellite

Ground track
Ground track

The orbit data is extracted from the following two-line orbital elements,

1 00058U 60013A   16206.22218604  .00000090  00000-0  46504-5 0  9996
2 00058  28.3273 120.0312 0165082 158.0600 202.7109 13.46303833747071
Epoch (UTC): 24 July 2016 05:19:56
Eccentricity: 0.0165082
inclination: 28.3273°
perigee height: 962 km
apogee height: 1209 km
right ascension of ascending node: 120.0312°
argument of perigee: 158.0600°
revolutions per day: 13.46303833
mean anomaly at epoch: 202.7109°
orbit number at epoch: 74707

The dashed part of the orbit path shows where the satellite is in the earth's shadow,  

DLR